User: anonymous   Login
Location: Hartman Creek State Park
(44.3257°N, 89.2134°W)
Time: 18:10:31
(UTC-06:00)
Language:

Terra - Orbit

View from above orbital plane
View from above orbital plane
View from above satellite
View from above satellite

Ground track
Ground track

The orbit data is extracted from the following two-line orbital elements,

1 25994U 99068A   18055.35940010 -.00001409  00000-0 -30285-3 0  9999
2 25994  98.2078 131.8163 0001365  91.8256 268.3091 14.57104881967396
Epoch (UTC): 24 February 2018 08:37:32
Eccentricity: 0.0001365
inclination: 98.2078°
perigee height: 701 km
apogee height: 703 km
right ascension of ascending node: 131.8163°
argument of perigee: 91.8256°
revolutions per day: 14.57104881
mean anomaly at epoch: 268.3091°
orbit number at epoch: 96739

The dashed part of the orbit path shows where the satellite is in the earth's shadow,  

DLR